Dewpoint
-5 -6 -6 -5 -5 -3 -3 -4 -5 -3 -3 -3 -2 -2 -2 -2 -1 -1 -2 -2 -2 -2 -3 -4 -5 -5 -4 -6 -5 -5 -5 -5 -5 -5 -6 -6 -7 -7 -7 -7 -7 -7 -8
-5 -6 -5 -5 -4 -4 -4 -4 -4 -4 -3 -3 -3 -3 -2 -2 -1 -1 -1 -1 -1 -2 -2 -3 -3 -4 -5 -5 -5 -4 -5 -4 -4 -4 -4 -5 -6 -6 -7 -7 -7 -6 -7
-5 -5 -5 -4 -4 -4 -4 -4 -4 -4 -3 -3 -3 -2 -1 -1 -1 -1 -1 -2 -3 -3 -2 -1 -2 -4 -5 -5 -5 -4 -4 -4 -4 -3 -4 -5 -6 -6 -7 -7 -6 -6 -6
-4 -4 -4 -4 -4 -4 -4 -4 -3 -3 -3 -2 -1 -1 -1 -1 -1 -2 -3 -4 -4 -3 -3 -3 -2 -1 -3 -4 -5 -3 -3 -3 -3 -3 -4 -5 -6 -7 -8 -7 -6 -6 -6
-4 -4 -4 -4 -4 -4 -3 -3 -2 -1 -0 -0 -0 -1 -2 -2 -2 -3 -4 -4 -4 -4 -4 -4 -4 -4 -3 -4 -2 -1 -2 -1 -1 -3 -5 -7 -10 -8 -7 -9 -7 -5 -5
-3 -3 -3 -2 -2 -1 -0 -0 -1 -1 -1 -1 -1 -3 -4 -4 -5 -7 -8 -8 -8 -6 -6 -6 -6 -6 -3 -2 -0 -2 -1 -2 -4 -8 -8 -8 -9 -9 -7 -6 -4 -4 -5
-3 -2 -2 -1 -0 -0 -1 -1 -1 -1 -2 -3 -4 -5 -6 -7 -8 -10 -11 -10 -6 -5 -6 -6 -6 -3 -2 -1 -1 -2 -4 -5 -5 -2 -1 -1 -1 -1 -1 -2 -7 -12 -12
-0 -0 0 0 -0 -0 -0 -1 -1 -2 -3 -4 -5 -6 -6 -7 -7 -9 -10 -10 -4 -5 -5 -5 -3 -2 -2 -3 -3 -3 -2 -2 -1 -1 -0 -1 -1 -3 -5 -6 -9 -10 -10
-1 -1 -1 -1 -0 -0 -0 -1 -3 -4 -4 -6 -6 -5 -7 -7 -8 -7 -9 -6 -4 -5 -4 -3 -3 -3 -4 -3 -2 -1 -1 -1 -2 -3 -4 -3 -3 -5 -5 -7 -9 -9 -7
-0 0 0 0 1 1 -2 -2 -2 -3 -4 -5 -6 -5 -4 -6 -7 -7 -7 -4 -4 -4 -4 -4 -4 -4 -4 -2 -1 -2 -8 -10 -9 -7 -8 -9 -11 -12 -13 -14 -15 -15 -13
0 0 0 1 1 0 -1 -1 -3 -6 -7 -6 -3 -1 -3 -6 -8 -7 -5 -4 -4 -5 -5 -4 -3 -3 -5 -10 -10 -9 -8 -9 -10 -12 -13 -15 -16 -16 -15 -15 -14 -13 -11
0 0 1 2 2 -0 1 0 -3 -3 -2 -1 -1 -3 -5 -7 -4 -5 -5 -5 -6 -6 -6 -4 -4 -8 -9 -11 -13 -12 -11 -11 -12 -13 -17 -17 -16 -15 -14 -12 -11 -11 -10
0 0 -0 2 2 -0 1 2 -0 -0 -0 -1 -3 -5 -7 -4 -5 -6 -6 -6 -7 -5 -5 -3 -4 -7 -8 -9 -9 -10 -11 -13 -17 -17 -17 -15 -13 -11 -10 -10 -10 -10 -10
1 1 2 2 -1 -1 1 0 -0 0 -2 -4 -4 -6 -5 -3 -7 -6 -6 -6 -5 -4 -3 -3 -4 -5 -7 -10 -10 -12 -15 -16 -16 -14 -12 -11 -10 -10 -11 -11 -12 -12 -12
2 1 2 -0 -3 -2 -4 -5 -1 -2 -4 -4 -4 -4 -2 -2 -5 -6 -6 -5 -4 -4 -3 -4 -4 -5 -7 -10 -13 -14 -14 -13 -14 -14 -13 -13 -14 -16 -16 -14 -14 -13 -11
2 2 -3 -3 -4 -7 -6 -1 -2 -5 -3 -3 -2 -2 -3 -3 -3 -4 -4 -5 -5 -5 -6 -8 -8 -10 -12 -13 -12 -12 -11 -11 -12 -13 -14 -16 -16 -14 -13 -13 -12 -11 -10
1 1 -2 -6 -5 -2 -1 -3 -5 -4 -3 -3 -3 -5 -6 -6 -6 -8 -8 -7 -8 -10 -11 -12 -12 -13 -13 -12 -11 -11 -12 -13 -14 -15 -15 -14 -13 -12 -12 -12 -12 -11 -11
-0 -5 -6 -2 -1 -1 -4 -4 -2 -3 -3 -4 -5 -6 -7 -8 -9 -10 -12 -13 -13 -13 -13 -13 -13 -13 -13 -12 -12 -13 -14 -16 -15 -14 -13 -11 -12 -12 -11 -10 -10 -10 -10
-4 -5 -2 0 -2 -7 -5 -2 -2 -4 -5 -6 -6 -8 -8 -10 -12 -15 -15 -13 -12 -12 -13 -13 -12 -12 -12 -13 -15 -16 -15 -14 -13 -12 -11 -12 -11 -11 -11 -10 -10 -11 -11
-6 -3 -1 -6 -9 -6 -2 -3 -4 -7 -7 -6 -6 -9 -11 -14 -16 -16 -14 -13 -12 -12 -12 -13 -13 -13 -15 -15 -16 -14 -13 -12 -11 -11 -12 -11 -10 -10 -11 -11 -10 -10 -10
-3 -2 -7 -9 -7 -3 -3 -4 -5 -6 -6 -6 -9 -11 -16 -17 -16 -15 -13 -13 -12 -13 -13 -14 -14 -14 -14 -16 -15 -13 -11 -11 -11 -11 -11 -10 -10 -11 -11 -11 -11 -11 -11
-2 -3 -7 -8 -5 -3 -3 -3 -4 -5 -7 -8 -12 -15 -15 -14 -14 -13 -13 -12 -11 -12 -13 -13 -14 -15 -16 -16 -14 -13 -12 -11 -11 -11 -10 -10 -11 -11 -12 -12 -11 -11 -11
-2 -4 -4 -7 -4 -5 -6 -7 -8 -7 -8 -11 -14 -14 -13 -12 -11 -11 -11 -11 -11 -12 -12 -13 -13 -15 -16 -15 -13 -12 -12 -11 -11 -10 -11 -11 -11 -12 -12 -11 -11 -10 -10
-2 -3 -3 -5 -7 -9 -9 -9 -8 -8 -9 -13 -14 -13 -11 -10 -10 -10 -9 -10 -11 -12 -13 -13 -14 -14 -14 -14 -13 -13 -12 -12 -11 -11 -11 -11 -12 -12 -11 -11 -10 -10 -9
-4 -3 -3 -5 -7 -9 -7 -7 -9 -9 -11 -12 -13 -11 -9 -9 -10 -9 -9 -10 -11 -12 -12 -13 -14 -13 -13 -13 -13 -13 -12 -12 -12 -12 -11 -12 -12 -13 -12 -11 -11 -10 -9
-5 -4 -4 -4 -5 -5 -6 -8 -10 -9 -10 -11 -11 -9 -8 -8 -10 -10 -10 -11 -11 -12 -13 -14 -15 -14 -14 -13 -13 -13 -12 -12 -12 -12 -12 -12 -13 -13 -13 -12 -12 -11 -10
Wind_Speed
9 6 7 9 3 5 9 4 3 3 4 7 10 12 14 15 18 21 23 24 27 31 33 34 32 30 30 28 26 25 27 27 27 27 28 26 22 18 18 21 21 21 23
12 12 11 9 8 4 2 4 5 8 8 10 14 17 20 22 23 25 27 30 31 32 35 38 39 38 37 35 33 32 32 32 32 30 31 28 22 27 26 28 29 28 28
10 7 6 4 1 1 4 6 8 11 13 16 18 20 21 22 27 27 26 27 32 33 35 34 39 43 43 42 40 39 38 37 36 34 28 13 18 24 23 26 31 31 32
5 3 0 4 6 8 9 10 12 14 15 14 14 18 24 29 31 34 36 36 31 29 30 31 31 36 45 49 47 44 41 39 38 36 32 31 30 21 19 26 28 31 31
4 5 8 10 11 11 9 8 7 7 9 13 20 24 29 32 34 35 33 31 32 33 34 34 35 34 35 45 50 43 39 36 33 30 24 22 19 16 13 19 25 33 36
4 5 5 4 3 0 2 4 7 12 18 23 28 31 30 31 33 35 36 38 39 39 38 36 34 36 35 37 36 38 31 26 25 18 15 11 7 8 9 17 26 30 39
6 5 3 2 2 4 8 13 20 24 27 29 30 30 30 30 33 37 39 39 38 38 37 33 29 28 23 25 27 27 28 26 22 17 14 17 18 21 20 23 26 30 31
7 6 5 5 6 10 17 23 26 29 30 28 27 26 27 32 37 39 40 37 34 35 31 29 18 18 20 19 13 10 10 13 16 23 26 26 25 19 15 19 23 28 31
9 8 8 8 11 20 25 26 27 26 25 24 27 31 36 40 43 43 40 31 29 30 22 16 11 8 9 12 19 17 19 27 21 19 17 18 19 16 18 22 23 22 26
11 13 14 16 16 19 22 24 23 23 24 29 31 35 41 45 46 44 29 23 27 21 11 7 8 14 19 22 25 26 17 17 15 14 16 18 20 22 24 26 27 27 29
14 17 20 21 21 23 25 24 25 27 30 32 35 39 44 47 45 31 19 16 14 8 6 9 14 19 16 13 11 12 13 16 19 21 23 26 26 27 26 26 26 26 25
22 24 23 25 23 28 27 25 28 31 32 31 36 44 43 40 29 21 9 7 5 5 8 15 9 8 13 17 18 20 21 22 23 25 27 27 27 29 28 27 27 27 26
27 26 27 20 25 28 27 25 28 31 29 34 39 39 37 31 21 9 8 8 8 8 11 14 15 17 16 21 23 24 25 26 27 28 28 28 27 28 27 28 29 31 31
25 26 22 21 26 28 25 28 31 28 33 36 32 31 27 25 13 7 8 10 7 14 18 18 14 17 21 22 27 29 29 30 28 26 27 29 30 32 35 37 38 39 40
21 21 19 23 24 25 29 34 27 32 35 30 26 24 20 20 15 13 12 14 19 24 23 20 17 19 23 28 30 29 26 27 29 31 34 35 36 36 37 36 37 35 35
21 19 19 21 22 26 30 30 34 38 29 23 22 15 17 18 15 12 13 16 21 24 24 22 22 24 27 28 26 25 26 29 32 35 38 39 36 33 30 27 25 25 27
16 23 23 26 28 30 29 34 33 27 22 23 11 7 8 14 19 21 22 21 23 21 20 24 27 27 25 24 24 25 29 34 37 37 35 33 31 28 28 27 27 26 26
18 20 23 29 29 29 35 31 24 25 26 17 17 18 17 15 18 20 22 23 24 24 25 25 25 26 25 26 30 33 34 34 33 31 30 28 26 25 24 25 27 28 29
24 26 27 25 30 35 29 22 25 26 16 14 20 20 19 20 23 24 23 23 23 24 25 24 25 27 30 31 31 29 30 31 30 27 23 23 23 23 24 25 28 29 27
22 29 22 29 33 27 17 21 20 16 15 19 21 20 21 23 23 23 23 24 25 24 24 26 28 29 29 28 28 26 28 29 27 24 25 21 23 24 27 26 28 30 30
26 20 27 30 28 20 20 20 15 16 18 21 19 22 22 22 22 23 23 22 23 26 27 28 28 27 27 28 25 25 23 22 25 27 25 23 22 27 26 24 26 28 28
24 22 28 30 25 22 22 19 17 14 20 18 20 21 21 22 23 23 22 23 25 27 28 30 31 30 29 25 25 22 19 20 23 23 21 23 28 31 25 22 18 18 20
20 26 27 29 25 21 17 17 16 18 15 19 20 21 22 24 24 23 24 25 26 27 29 30 33 34 32 29 25 21 21 24 18 17 19 23 26 23 18 15 15 15 15
25 31 28 25 22 16 14 18 22 18 17 18 20 21 23 25 25 24 24 25 26 27 28 30 31 32 32 30 26 28 27 23 17 21 21 20 20 16 14 11 12 12 10
30 28 26 22 21 18 19 20 21 16 17 19 20 21 23 25 26 24 23 24 24 24 28 27 28 28 29 28 25 25 25 19 19 18 17 17 18 18 16 13 12 13 12
31 27 23 21 23 23 20 20 20 19 19 20 21 22 23 25 25 23 24 22 21 24 23 24 24 21 22 22 23 24 19 16 16 13 13 16 18 19 21 21 16 13 15
Wind_Direction
114 79 55 52 75 187 188 206 271 316 315 310 313 313 317 317 323 324 318 314 313 308 298 291 287 281 276 277 278 278 275 276 279 280 282 279 276 277 284 294 303 326 319
102 87 78 75 89 116 192 270 282 288 299 296 293 297 305 309 313 315 310 307 308 308 298 291 289 282 277 274 270 269 270 271 270 266 271 275 270 272 276 281 287 306 321
95 96 95 70 69 269 233 248 260 268 276 279 285 294 301 304 309 310 307 302 300 299 297 292 279 275 273 269 269 267 266 267 265 256 250 246 256 271 270 275 283 292 307
141 128 320 256 249 243 245 257 266 273 283 297 309 315 316 315 316 314 314 311 308 301 299 300 294 278 269 267 266 263 260 254 252 250 243 244 254 257 273 277 282 288 302
161 219 233 237 245 248 254 274 294 306 310 314 314 313 311 312 313 314 313 309 307 306 303 298 295 290 281 270 264 253 248 243 239 241 237 236 244 256 265 278 278 287 295
222 239 220 208 218 213 349 340 327 324 317 312 312 317 322 321 320 319 316 313 311 308 305 303 298 287 277 270 259 238 230 218 218 212 221 232 253 269 283 295 298 295 289
292 255 264 239 23 357 346 337 330 326 324 323 321 318 317 318 319 319 317 313 311 310 309 309 302 285 263 234 218 206 203 209 212 237 263 266 269 271 278 286 293 291 291
25 45 59 17 351 341 337 332 328 323 320 319 318 318 320 322 322 323 322 313 307 307 309 309 293 250 213 198 195 207 223 243 255 277 291 278 286 299 305 285 286 293 290
34 16 351 335 328 327 318 316 318 319 320 324 324 323 324 324 323 317 321 301 301 301 293 269 242 234 258 263 253 284 296 309 314 319 309 292 284 277 278 278 278 283 290
358 347 331 315 301 312 320 321 324 326 328 328 327 325 325 325 326 324 314 296 292 285 251 243 287 301 304 299 299 304 314 308 314 306 298 294 290 287 284 283 281 279 280
344 319 313 302 301 316 319 327 333 334 332 331 328 325 325 328 327 321 317 283 264 224 253 295 296 300 315 316 315 304 295 290 290 289 289 290 292 291 290 289 285 282 278
331 324 311 304 306 327 327 328 332 331 329 326 324 324 326 327 328 327 307 204 233 276 298 292 308 300 325 322 313 306 301 300 298 296 294 292 293 290 291 290 287 283 280
331 330 328 318 320 327 326 321 325 323 321 323 325 327 329 332 328 301 242 211 234 265 287 306 324 321 308 305 310 308 305 302 302 300 298 297 295 292 290 287 284 282 281
332 332 325 320 327 331 329 328 322 320 323 326 326 331 334 340 321 264 232 235 262 283 289 299 305 298 299 301 305 305 304 304 303 302 300 295 292 292 291 289 286 284 282
315 325 320 323 329 334 335 327 323 325 328 325 327 332 338 336 319 285 270 268 274 286 300 309 297 296 297 299 302 303 303 303 301 299 295 293 294 294 293 290 287 286 284
328 331 334 341 337 335 319 321 326 326 327 318 321 332 336 336 332 345 355 334 329 322 316 302 298 296 299 304 307 307 303 301 299 299 299 300 300 299 296 292 286 279 277
330 328 333 332 329 320 319 322 323 329 321 317 329 343 340 347 342 332 324 319 316 311 305 302 303 307 309 308 305 303 302 301 301 300 303 305 305 305 300 297 291 282 274
344 345 337 323 319 322 321 321 321 329 327 323 340 340 332 329 320 319 318 313 309 309 310 310 310 309 309 309 307 305 303 301 301 304 306 306 307 306 308 301 295 292 290
347 326 318 319 320 322 319 314 324 326 330 340 341 334 325 323 322 323 322 320 319 318 317 318 317 313 312 312 312 311 308 306 307 309 310 311 309 313 312 300 294 293 290
324 314 319 321 324 322 316 316 319 321 325 328 327 322 320 322 323 323 322 321 320 321 320 317 314 316 317 318 317 315 312 313 316 315 315 319 314 315 312 303 297 295 296
313 313 323 328 329 318 314 310 308 317 311 313 317 319 324 328 326 323 321 325 326 323 320 319 324 325 322 324 321 321 319 314 315 315 318 319 317 314 313 300 294 287 287
317 315 325 330 330 323 306 291 289 312 300 305 316 323 329 330 329 327 328 330 329 326 326 326 326 328 329 331 330 328 321 317 316 316 320 314 315 318 317 316 308 299 291
310 315 323 328 326 325 320 327 328 302 295 308 316 324 330 333 332 329 328 330 331 330 329 330 329 330 332 334 336 332 331 328 326 322 314 310 318 325 326 326 325 319 311
319 318 312 318 322 324 313 308 306 299 298 309 316 322 328 332 331 327 326 326 331 331 332 332 330 330 331 336 343 336 333 336 332 321 327 328 334 340 334 338 352 347 328
314 313 308 313 315 310 307 311 308 290 299 306 312 317 324 331 330 327 325 327 330 330 331 331 329 329 329 337 333 329 332 332 322 326 333 348 359 1 6 5 4 8 6
314 314 309 305 309 302 302 304 300 288 294 299 303 311 321 330 330 327 323 325 327 330 332 331 330 329 328 333 330 331 337 326 335 339 353 4 10 12 16 14 10 11 15
Height
1530 1530 1530 1530 1532 1535 1538 1540 1541 1540 1540 1539 1539 1537 1536 1533 1531 1529 1527 1525 1522 1520 1517 1514 1512 1511 1509 1509 1509 1508 1506 1505 1504 1503 1502 1501 1500 1500 1500 1500 1499 1499 1500
1530 1531 1532 1533 1534 1535 1537 1539 1539 1539 1538 1536 1535 1533 1532 1530 1528 1526 1524 1521 1518 1515 1511 1508 1505 1504 1502 1501 1501 1500 1499 1499 1498 1498 1497 1495 1494 1492 1493 1493 1492 1492 1492
1532 1533 1533 1534 1534 1535 1536 1537 1536 1535 1534 1533 1532 1530 1528 1526 1523 1521 1518 1516 1512 1507 1503 1499 1496 1495 1494 1491 1492 1492 1491 1491 1490 1489 1491 1489 1485 1485 1485 1485 1485 1485 1485
1532 1532 1533 1534 1534 1535 1534 1534 1533 1532 1530 1529 1528 1525 1523 1520 1517 1513 1509 1506 1503 1499 1495 1491 1487 1485 1485 1483 1482 1483 1483 1483 1483 1484 1482 1481 1480 1478 1478 1477 1477 1478 1478
1532 1532 1532 1532 1532 1532 1531 1531 1530 1529 1528 1527 1524 1521 1518 1514 1509 1506 1502 1498 1494 1491 1486 1483 1479 1476 1473 1472 1473 1474 1475 1475 1477 1478 1477 1476 1474 1474 1473 1468 1470 1471 1470
1533 1533 1532 1532 1532 1531 1531 1530 1529 1528 1526 1524 1521 1516 1512 1507 1502 1499 1494 1489 1485 1480 1476 1472 1469 1464 1461 1461 1461 1462 1464 1467 1468 1471 1472 1470 1471 1470 1468 1465 1464 1464 1463
1533 1533 1532 1532 1530 1531 1530 1528 1527 1525 1522 1519 1514 1511 1506 1503 1497 1492 1486 1480 1476 1471 1467 1463 1459 1456 1453 1454 1454 1456 1455 1457 1459 1464 1465 1465 1465 1464 1462 1461 1462 1461 1460
1532 1531 1532 1531 1531 1530 1529 1527 1524 1521 1518 1515 1511 1507 1502 1497 1491 1485 1479 1474 1470 1466 1460 1459 1455 1453 1452 1452 1452 1453 1452 1454 1455 1458 1459 1459 1458 1457 1457 1461 1460 1455 1453
1534 1533 1533 1532 1531 1530 1528 1524 1520 1517 1514 1510 1504 1502 1496 1490 1483 1478 1473 1467 1464 1461 1457 1456 1455 1454 1454 1452 1450 1450 1448 1451 1449 1451 1453 1453 1453 1453 1454 1456 1456 1453 1447
1536 1536 1535 1533 1530 1527 1524 1521 1516 1511 1508 1503 1498 1494 1489 1482 1474 1468 1463 1461 1460 1457 1456 1456 1456 1454 1453 1450 1448 1448 1449 1448 1447 1449 1449 1450 1451 1449 1448 1448 1447 1445 1442
1538 1536 1533 1529 1526 1523 1519 1513 1510 1507 1503 1498 1493 1489 1483 1474 1465 1458 1454 1457 1459 1458 1456 1453 1451 1451 1450 1448 1447 1447 1448 1447 1447 1446 1445 1445 1444 1440 1439 1438 1437 1436 1436
1534 1531 1528 1525 1523 1519 1514 1510 1506 1502 1498 1493 1488 1482 1475 1468 1460 1453 1451 1455 1458 1456 1453 1449 1448 1449 1448 1447 1446 1445 1444 1443 1441 1440 1439 1436 1434 1432 1431 1429 1428 1428 1428
1529 1525 1522 1519 1518 1514 1510 1506 1502 1497 1493 1488 1482 1477 1470 1464 1459 1453 1452 1453 1452 1451 1449 1447 1448 1447 1446 1445 1443 1441 1439 1437 1435 1433 1430 1428 1426 1424 1423 1422 1420 1419 1419
1524 1521 1519 1517 1514 1510 1505 1501 1497 1492 1488 1482 1476 1470 1466 1463 1458 1455 1451 1451 1452 1449 1448 1446 1444 1444 1443 1440 1438 1435 1433 1430 1428 1426 1423 1421 1419 1416 1414 1412 1410 1408 1407
1520 1517 1514 1511 1507 1504 1500 1495 1492 1487 1482 1476 1471 1466 1463 1461 1458 1456 1453 1451 1450 1448 1446 1443 1442 1440 1438 1436 1432 1430 1427 1424 1421 1419 1416 1413 1410 1406 1404 1400 1398 1397 1395
1518 1515 1510 1506 1503 1500 1495 1492 1488 1483 1477 1472 1468 1464 1462 1459 1457 1453 1451 1450 1448 1445 1444 1441 1438 1436 1433 1430 1426 1422 1419 1417 1413 1409 1405 1402 1398 1395 1392 1391 1390 1389 1387
1512 1511 1509 1506 1501 1496 1491 1485 1482 1478 1474 1468 1465 1462 1460 1457 1456 1454 1450 1447 1445 1442 1440 1438 1434 1430 1427 1423 1420 1417 1413 1409 1404 1400 1396 1392 1389 1386 1383 1381 1379 1378 1377
1510 1507 1503 1501 1497 1493 1488 1483 1478 1474 1471 1466 1463 1462 1459 1455 1452 1450 1447 1444 1441 1438 1435 1432 1428 1425 1422 1418 1414 1409 1405 1400 1396 1392 1388 1384 1381 1379 1376 1373 1370 1368 1367
1511 1506 1499 1496 1492 1487 1482 1480 1475 1471 1468 1466 1461 1460 1457 1452 1449 1445 1442 1439 1436 1433 1430 1426 1423 1419 1415 1411 1406 1401 1396 1391 1388 1385 1382 1379 1375 1373 1370 1366 1363 1360 1358
1504 1500 1495 1491 1487 1481 1477 1474 1472 1469 1468 1464 1460 1458 1455 1449 1445 1441 1438 1435 1432 1428 1425 1422 1418 1413 1408 1404 1399 1394 1389 1384 1381 1378 1375 1373 1370 1366 1363 1359 1356 1352 1350
1496 1494 1491 1485 1480 1477 1473 1470 1467 1465 1463 1461 1459 1456 1451 1446 1442 1439 1435 1431 1428 1424 1420 1416 1412 1408 1404 1398 1393 1389 1384 1380 1376 1373 1369 1366 1363 1359 1355 1352 1347 1344 1343
1493 1490 1485 1482 1477 1473 1470 1466 1464 1463 1460 1457 1455 1452 1447 1443 1439 1435 1431 1428 1424 1419 1414 1410 1405 1401 1397 1393 1388 1384 1381 1377 1373 1368 1365 1361 1357 1352 1347 1343 1340 1337 1335
1488 1486 1480 1476 1474 1470 1466 1463 1460 1458 1456 1454 1451 1448 1444 1439 1435 1431 1427 1424 1420 1415 1410 1405 1400 1394 1391 1387 1384 1380 1376 1372 1368 1365 1362 1357 1352 1347 1343 1340 1336 1332 1330
1483 1480 1476 1472 1469 1467 1463 1460 1457 1455 1453 1450 1447 1444 1440 1436 1432 1428 1424 1420 1416 1411 1406 1402 1396 1391 1386 1382 1378 1375 1371 1367 1364 1361 1357 1353 1349 1344 1341 1337 1334 1330 1327
1479 1474 1471 1467 1464 1463 1459 1456 1453 1451 1449 1446 1443 1440 1437 1432 1428 1424 1420 1417 1413 1409 1403 1399 1395 1389 1384 1380 1378 1373 1368 1365 1361 1358 1354 1351 1347 1343 1338 1335 1332 1329 1326
1474 1468 1464 1462 1460 1457 1454 1452 1449 1447 1445 1442 1439 1436 1433 1429 1424 1420 1417 1415 1411 1407 1402 1398 1392 1388 1383 1379 1375 1370 1366 1362 1359 1356 1353 1350 1347 1343 1339 1335 1331 1329 1325